KLM95G EHAM-EGNT

Flight info

Callsign KLM95G
Flight time 0h 58m
Altitude 34000
Route BERGI L60 SOPEK L989 BODSO/N0455F340 Y70 BATLI Y250 RIMTO
Aircraft A21N/M-SDE2E3FGHIRWXY/LB1

Departure

Time 2026-04-27 19:49
Airport Amsterdam Airport Schiphol (EHAM)

Arrival

Time 2026-04-27 20:47
Airport Newcastle International Airport (EGNT)
Time Latitude Longitude Altitude Speed Heading
2026-04-27 19:17 52.30897 4.77236 -1 ft 0 kts
2026-04-27 19:32 52.30889 4.77236 -1 ft 2 kts 355°
2026-04-27 19:32 52.30874 4.77237 -2 ft 2 kts 359°
2026-04-27 19:32 52.30859 4.77231 -2 ft 2 kts 33°
2026-04-27 19:33 52.30848 4.77214 -2 ft 2 kts 63°
2026-04-27 19:33 52.30845 4.77198 -2 ft 2 kts 83°
2026-04-27 19:33 52.30845 4.77182 -2 ft 1 kts 95°
2026-04-27 19:33 52.30846 4.77180 -2 ft 0 kts 94°
2026-04-27 19:36 52.30845 4.77193 -2 ft 3 kts 94°
2026-04-27 19:37 52.30842 4.77267 -2 ft 9 kts 94°
2026-04-27 19:37 52.30837 4.77411 -2 ft 15 kts 92°
2026-04-27 19:37 52.30871 4.77592 -2 ft 19 kts 24°
2026-04-27 19:37 52.31017 4.77621 -2 ft 22 kts
2026-04-27 19:38 52.31184 4.77637 -1 ft 25 kts
2026-04-27 19:38 52.31366 4.77656 -1 ft 27 kts
2026-04-27 19:38 52.31529 4.77530 -2 ft 26 kts 311°
2026-04-27 19:38 52.31575 4.77252 -2 ft 26 kts 266°
2026-04-27 19:39 52.31567 4.76951 -2 ft 26 kts 268°
2026-04-27 19:39 52.31556 4.76655 -1 ft 26 kts 266°
2026-04-27 19:39 52.31545 4.76361 -2 ft 25 kts 266°
2026-04-27 19:39 52.31536 4.76067 -2 ft 25 kts 268°
2026-04-27 19:40 52.31525 4.75774 -1 ft 25 kts 267°
2026-04-27 19:40 52.31514 4.75487 -2 ft 25 kts 267°
2026-04-27 19:40 52.31505 4.75194 -2 ft 25 kts 267°
2026-04-27 19:40 52.31495 4.74908 -2 ft 25 kts 266°
2026-04-27 19:41 52.31520 4.74675 -2 ft 17 kts 329°
2026-04-27 19:41 52.31500 4.74600 -2 ft 11 kts 236°
2026-04-27 19:41 52.31481 4.74421 -1 ft 18 kts 269°
2026-04-27 19:41 52.31547 4.74298 -2 ft 15 kts
2026-04-27 19:42 52.31656 4.74306 -2 ft 16 kts
2026-04-27 19:42 52.31785 4.74318 -2 ft 20 kts
2026-04-27 19:42 52.31929 4.74330 -2 ft 21 kts
2026-04-27 19:42 52.32032 4.74208 -2 ft 22 kts 273°
2026-04-27 19:43 52.32040 4.73934 -2 ft 25 kts 273°
2026-04-27 19:43 52.32053 4.73626 -2 ft 28 kts 274°
2026-04-27 19:43 52.32109 4.73328 -2 ft 27 kts 317°
2026-04-27 19:43 52.32254 4.73123 -2 ft 27 kts 320°
2026-04-27 19:44 52.32400 4.72917 -2 ft 27 kts 319°
2026-04-27 19:44 52.32541 4.72719 -2 ft 27 kts 320°
2026-04-27 19:44 52.32681 4.72515 -2 ft 26 kts 313°
2026-04-27 19:44 52.32805 4.72288 -2 ft 26 kts 312°
2026-04-27 19:45 52.32926 4.72062 -2 ft 26 kts 311°
2026-04-27 19:45 52.33047 4.71837 -1 ft 26 kts 311°
2026-04-27 19:45 52.33146 4.71595 -2 ft 25 kts 274°
2026-04-27 19:45 52.33051 4.71373 -2 ft 25 kts 222°
2026-04-27 19:46 52.32921 4.71185 -2 ft 24 kts 221°
2026-04-27 19:46 52.32865 4.71046 -2 ft 2 kts 271°
2026-04-27 19:46 52.32865 4.71043 -2 ft 0 kts 271°
2026-04-27 19:47 52.32865 4.71007 -2 ft 7 kts 271°
2026-04-27 19:48 52.32887 4.70900 -2 ft 11 kts 326°
2026-04-27 19:48 52.32982 4.70897 -1 ft 21 kts
2026-04-27 19:48 52.33270 4.70926 -1 ft 75 kts
2026-04-27 19:48 52.34038 4.70991 -1 ft 142 kts
2026-04-27 19:49 52.35115 4.71089 421 ft 159 kts
2026-04-27 19:49 52.36188 4.71198 1249 ft 156 kts
2026-04-27 19:49 52.37254 4.71305 1944 ft 158 kts
2026-04-27 19:49 52.38390 4.71422 2384 ft 174 kts
2026-04-27 19:50 52.39662 4.71554 2855 ft 193 kts
2026-04-27 19:50 52.41057 4.71693 3385 ft 211 kts
2026-04-27 19:50 52.42588 4.71662 3920 ft 232 kts 348°
2026-04-27 19:50 52.44076 4.70481 4461 ft 253 kts 328°
2026-04-27 19:51 52.45568 4.68772 5159 ft 266 kts 325°
2026-04-27 19:51 52.47049 4.67019 6074 ft 269 kts 325°
2026-04-27 19:51 52.48586 4.65233 7002 ft 272 kts 325°
2026-04-27 19:51 52.50131 4.63469 7868 ft 275 kts 326°
2026-04-27 19:52 52.51702 4.61700 8705 ft 279 kts 326°
2026-04-27 19:52 52.53316 4.59897 9549 ft 283 kts 326°
2026-04-27 19:52 52.54953 4.58075 10389 ft 286 kts 326°
2026-04-27 19:52 52.56632 4.56211 11039 ft 297 kts 326°
2026-04-27 19:53 52.60238 4.52207 11847 ft 333 kts 326°
2026-04-27 19:53 52.62176 4.50052 12540 ft 340 kts 326°
2026-04-27 19:53 52.64127 4.47886 13370 ft 342 kts 325°
2026-04-27 19:54 52.66101 4.45692 14156 ft 345 kts 325°
2026-04-27 19:54 52.68102 4.43464 14911 ft 348 kts 325°
2026-04-27 19:54 52.70085 4.41251 15632 ft 351 kts 324°
2026-04-27 19:54 52.72109 4.38987 16340 ft 354 kts 324°
2026-04-27 19:55 52.73990 4.36329 17012 ft 354 kts 310°
2026-04-27 19:55 52.75343 4.33020 17670 ft 354 kts 294°
2026-04-27 19:55 52.76231 4.29235 18339 ft 355 kts 287°
2026-04-27 19:55 52.77006 4.25338 18982 ft 357 kts 286°
2026-04-27 19:56 52.77763 4.21466 19591 ft 359 kts 286°
2026-04-27 19:56 52.78531 4.17558 20192 ft 362 kts 286°
2026-04-27 19:56 52.79316 4.13594 20780 ft 364 kts 286°
2026-04-27 19:56 52.80108 4.09609 21353 ft 366 kts 286°
2026-04-27 19:57 52.80902 4.05624 21900 ft 368 kts 286°
2026-04-27 19:57 52.81699 4.01623 22428 ft 371 kts 286°
2026-04-27 19:57 52.82509 3.97560 22946 ft 373 kts 286°
2026-04-27 19:57 52.83326 3.93459 23459 ft 375 kts 286°
2026-04-27 19:58 52.84135 3.89392 23941 ft 377 kts 286°
2026-04-27 19:58 52.84953 3.85265 24407 ft 380 kts 286°
2026-04-27 19:58 52.85772 3.81124 24847 ft 382 kts 286°
2026-04-27 19:58 52.86606 3.76903 25287 ft 385 kts 286°
2026-04-27 19:59 52.87441 3.72659 25699 ft 387 kts 286°
2026-04-27 19:59 52.88274 3.68420 26094 ft 390 kts 286°
2026-04-27 19:59 52.89106 3.64180 26478 ft 392 kts 286°
2026-04-27 19:59 52.89951 3.59865 26857 ft 395 kts 286°
2026-04-27 20:00 52.90798 3.55531 27223 ft 398 kts 286°
2026-04-27 20:00 52.91643 3.51197 27594 ft 399 kts 286°
2026-04-27 20:00 52.92497 3.46808 27954 ft 402 kts 286°
2026-04-27 20:00 52.93351 3.42417 28297 ft 404 kts 286°
2026-04-27 20:01 52.94213 3.37978 28633 ft 406 kts 286°
2026-04-27 20:01 52.95083 3.33486 28951 ft 408 kts 285°
2026-04-27 20:01 52.95954 3.28967 29276 ft 411 kts 285°
2026-04-27 20:01 52.96816 3.24476 29614 ft 412 kts 285°
2026-04-27 20:02 52.97676 3.19986 30063 ft 410 kts 285°
2026-04-27 20:02 52.98535 3.15465 30509 ft 409 kts 285°
2026-04-27 20:02 52.99377 3.11004 30897 ft 408 kts 285°
2026-04-27 20:02 53.00229 3.06504 31256 ft 408 kts 285°
2026-04-27 20:03 53.01076 3.02025 31613 ft 407 kts 285°
2026-04-27 20:03 53.01914 2.97602 31975 ft 406 kts 285°
2026-04-27 20:03 53.02763 2.93111 32324 ft 406 kts 286°
2026-04-27 20:03 53.03612 2.88621 32645 ft 406 kts 286°
2026-04-27 20:04 53.04449 2.84184 32908 ft 407 kts 286°
2026-04-27 20:04 53.05293 2.79709 33149 ft 408 kts 286°
2026-04-27 20:04 53.06146 2.75172 33383 ft 409 kts 286°
2026-04-27 20:04 53.06980 2.70711 33618 ft 411 kts 286°
2026-04-27 20:05 53.07829 2.66155 33845 ft 412 kts 287°
2026-04-27 20:05 53.08598 2.61562 34060 ft 413 kts 283°
2026-04-27 20:05 53.09138 2.56908 34247 ft 414 kts 279°
2026-04-27 20:05 53.09456 2.52138 34282 ft 416 kts 274°
2026-04-27 20:06 53.09386 2.42565 34290 ft 416 kts 266°
2026-04-27 20:06 53.08405 2.33058 34293 ft 417 kts 259°
2026-04-27 20:07 53.07891 2.23512 34294 ft 415 kts 274°
2026-04-27 20:07 53.08953 2.14144 34296 ft 416 kts 286°
2026-04-27 20:08 53.10703 2.04987 34293 ft 416 kts 288°
2026-04-27 20:08 53.12503 1.95787 34292 ft 418 kts 288°
2026-04-27 20:09 53.14276 1.86594 34292 ft 418 kts 288°
2026-04-27 20:09 53.16039 1.77358 34292 ft 419 kts 288°
2026-04-27 20:10 53.17788 1.68118 34293 ft 419 kts 288°
2026-04-27 20:10 53.19516 1.58935 34293 ft 419 kts 288°
2026-04-27 20:11 53.21258 1.49618 34293 ft 419 kts 288°
2026-04-27 20:11 53.22980 1.40369 34293 ft 419 kts 288°
2026-04-27 20:12 53.24689 1.31129 34292 ft 419 kts 288°
2026-04-27 20:12 53.26400 1.21809 34292 ft 418 kts 288°
2026-04-27 20:13 53.28100 1.12513 34292 ft 419 kts 288°
2026-04-27 20:13 53.29800 1.03187 34293 ft 419 kts 288°
2026-04-27 20:14 53.31486 0.93890 34295 ft 419 kts 288°
2026-04-27 20:14 53.33163 0.84602 34299 ft 419 kts 288°
2026-04-27 20:15 53.34841 0.75253 34299 ft 419 kts 289°
2026-04-27 20:15 53.36502 0.65963 34296 ft 420 kts 289°
2026-04-27 20:16 53.38168 0.56595 34297 ft 421 kts 289°
2026-04-27 20:16 53.39833 0.47179 34303 ft 420 kts 289°
2026-04-27 20:17 53.41487 0.37781 34309 ft 421 kts 289°
2026-04-27 20:17 53.42853 0.29964 34314 ft 422 kts 289°
2026-04-27 20:18 53.44763 0.18961 34319 ft 422 kts 289°
2026-04-27 20:18 53.46397 0.09514 34327 ft 422 kts 289°
2026-04-27 20:19 53.48011 0.00141 34337 ft 422 kts 289°
2026-04-27 20:19 53.49602 -0.09294 34346 ft 415 kts 291°
2026-04-27 20:20 53.51203 -0.18655 34346 ft 415 kts 291°
2026-04-27 20:20 53.52791 -0.27988 34346 ft 415 kts 291°
2026-04-27 20:21 53.54359 -0.37270 34347 ft 415 kts 291°
2026-04-27 20:21 53.55952 -0.46616 34343 ft 413 kts 295°
2026-04-27 20:22 53.58513 -0.55054 34346 ft 404 kts 309°
2026-04-27 20:22 53.61794 -0.62735 34348 ft 405 kts 311°
2026-04-27 20:23 53.65089 -0.70386 34347 ft 407 kts 310°
2026-04-27 20:23 53.66750 -0.74267 34155 ft 407 kts 310°
2026-04-27 20:23 53.68400 -0.78130 33904 ft 403 kts 310°
2026-04-27 20:24 53.70008 -0.81902 33658 ft 401 kts 310°
2026-04-27 20:24 53.71643 -0.85740 33394 ft 398 kts 310°
2026-04-27 20:24 53.73243 -0.89503 33058 ft 396 kts 310°
2026-04-27 20:24 53.74851 -0.93283 32630 ft 397 kts 310°
2026-04-27 20:25 53.76437 -0.97022 32067 ft 398 kts 311°
2026-04-27 20:25 53.78037 -1.00797 31451 ft 398 kts 311°
2026-04-27 20:25 53.79657 -1.04629 30807 ft 398 kts 311°
2026-04-27 20:25 53.81255 -1.08413 30157 ft 398 kts 311°
2026-04-27 20:26 53.82875 -1.12252 29479 ft 398 kts 311°
2026-04-27 20:26 53.84472 -1.16040 28806 ft 397 kts 312°
2026-04-27 20:26 53.86068 -1.19834 28348 ft 390 kts 312°
2026-04-27 20:26 53.87621 -1.23537 27944 ft 383 kts 312°
2026-04-27 20:27 53.89154 -1.27196 27537 ft 377 kts 312°
2026-04-27 20:27 53.90649 -1.30764 27139 ft 372 kts 312°
2026-04-27 20:27 53.92146 -1.34342 26738 ft 367 kts 312°
2026-04-27 20:27 53.93602 -1.37830 26353 ft 362 kts 312°
2026-04-27 20:28 53.95050 -1.41300 25971 ft 358 kts 313°
2026-04-27 20:28 53.96481 -1.44730 25587 ft 354 kts 313°
2026-04-27 20:28 53.97901 -1.48143 25148 ft 352 kts 313°
2026-04-27 20:28 53.98835 -1.50388 24878 ft 350 kts 313°
2026-04-27 20:29 54.00697 -1.54872 24261 ft 349 kts 313°
2026-04-27 20:29 54.02084 -1.58218 23855 ft 347 kts 313°
2026-04-27 20:29 54.03466 -1.61550 23390 ft 346 kts 313°
2026-04-27 20:29 54.04854 -1.64895 22868 ft 347 kts 313°
2026-04-27 20:30 54.06231 -1.68233 22343 ft 348 kts 311°
2026-04-27 20:30 54.07620 -1.71609 21795 ft 349 kts 311°
2026-04-27 20:30 54.09017 -1.75013 21173 ft 350 kts 311°
2026-04-27 20:30 54.10400 -1.78381 20637 ft 348 kts 310°
2026-04-27 20:31 54.11834 -1.81688 20166 ft 341 kts 317°
2026-04-27 20:31 54.13646 -1.84090 19631 ft 331 kts 336°
2026-04-27 20:31 54.15785 -1.85341 19117 ft 324 kts 352°
2026-04-27 20:31 54.18011 -1.85430 18594 ft 322 kts
2026-04-27 20:32 54.20212 -1.84819 18092 ft 320 kts
2026-04-27 20:32 54.22397 -1.84136 17573 ft 319 kts 10°
2026-04-27 20:32 54.24564 -1.83448 17075 ft 318 kts 10°
2026-04-27 20:32 54.26716 -1.82765 16587 ft 316 kts 10°
2026-04-27 20:33 54.28854 -1.82089 16101 ft 314 kts 10°
2026-04-27 20:33 54.31004 -1.81524 15599 ft 313 kts
2026-04-27 20:33 54.33173 -1.81894 15102 ft 312 kts 351°
2026-04-27 20:33 54.35281 -1.82638 14632 ft 310 kts 349°
2026-04-27 20:34 54.37361 -1.83437 14146 ft 309 kts 348°
2026-04-27 20:34 54.39429 -1.84238 13664 ft 307 kts 348°
2026-04-27 20:34 54.41512 -1.85042 13181 ft 305 kts 348°
2026-04-27 20:34 54.43565 -1.85834 12700 ft 304 kts 348°
2026-04-27 20:35 54.45631 -1.86631 12214 ft 302 kts 348°
2026-04-27 20:35 54.47671 -1.87415 11736 ft 301 kts 348°
2026-04-27 20:35 54.49681 -1.88186 11427 ft 296 kts 348°
2026-04-27 20:35 54.51638 -1.88941 11378 ft 280 kts 348°
2026-04-27 20:36 54.53480 -1.89656 11229 ft 269 kts 348°
2026-04-27 20:36 54.55285 -1.90360 10926 ft 265 kts 348°
2026-04-27 20:36 54.57074 -1.91061 10542 ft 264 kts 348°
2026-04-27 20:36 54.58875 -1.91769 10147 ft 263 kts 348°
2026-04-27 20:37 54.60635 -1.92464 9763 ft 263 kts 348°
2026-04-27 20:37 54.62426 -1.93173 9374 ft 262 kts 348°
2026-04-27 20:37 54.64192 -1.93880 9004 ft 260 kts 348°
2026-04-27 20:37 54.65926 -1.94577 8633 ft 259 kts 348°
2026-04-27 20:38 54.67693 -1.95291 8261 ft 258 kts 348°
2026-04-27 20:38 54.69427 -1.95989 7904 ft 256 kts 348°
2026-04-27 20:38 54.71158 -1.96693 7535 ft 255 kts 348°
2026-04-27 20:38 54.72876 -1.97396 7154 ft 255 kts 348°
2026-04-27 20:39 54.74580 -1.98102 6786 ft 254 kts 348°
2026-04-27 20:39 54.76290 -1.98792 6453 ft 251 kts 348°
2026-04-27 20:39 54.77993 -1.99471 6101 ft 250 kts 349°
2026-04-27 20:39 54.79677 -2.00164 5720 ft 250 kts 348°
2026-04-27 20:40 54.81360 -2.00870 5357 ft 249 kts 349°
2026-04-27 20:40 54.83022 -2.01579 4996 ft 248 kts 348°
2026-04-27 20:40 54.84695 -2.02283 4665 ft 246 kts 349°
2026-04-27 20:40 54.86358 -2.02985 4290 ft 246 kts 348°
2026-04-27 20:41 54.88003 -2.03677 3946 ft 244 kts 349°
2026-04-27 20:41 54.89627 -2.04392 3680 ft 240 kts 349°
2026-04-27 20:41 54.91222 -2.05072 3513 ft 231 kts 353°
2026-04-27 20:41 54.92771 -2.05078 3353 ft 219 kts 13°
2026-04-27 20:42 54.94198 -2.04346 3186 ft 211 kts 26°
2026-04-27 20:42 54.95277 -2.02720 3027 ft 203 kts 60°
2026-04-27 20:42 54.95727 -2.00486 3024 ft 190 kts 72°
2026-04-27 20:42 54.96081 -1.98387 3014 ft 175 kts 68°
2026-04-27 20:43 54.96510 -1.96450 3014 ft 172 kts 62°
2026-04-27 20:43 54.97025 -1.94531 3021 ft 175 kts 60°
2026-04-27 20:43 54.97551 -1.92604 2949 ft 175 kts 61°
2026-04-27 20:43 54.98060 -1.90703 2740 ft 174 kts 63°
2026-04-27 20:44 54.98565 -1.88779 2501 ft 174 kts 62°
2026-04-27 20:44 54.99068 -1.86870 2276 ft 173 kts 63°
2026-04-27 20:44 54.99562 -1.84986 2048 ft 171 kts 62°
2026-04-27 20:44 55.00063 -1.83088 1818 ft 173 kts 63°
2026-04-27 20:45 55.00560 -1.81203 1606 ft 165 kts 63°
2026-04-27 20:45 55.01023 -1.79445 1374 ft 152 kts 65°
2026-04-27 20:45 55.01440 -1.77861 1166 ft 136 kts 63°
2026-04-27 20:45 55.01815 -1.76442 985 ft 124 kts 63°
2026-04-27 20:46 55.02181 -1.75059 838 ft 125 kts 64°
2026-04-27 20:46 55.02540 -1.73704 680 ft 125 kts 63°
2026-04-27 20:46 55.02902 -1.72315 495 ft 124 kts 63°
2026-04-27 20:46 55.03275 -1.70974 350 ft 122 kts 63°
2026-04-27 20:47 55.03619 -1.69654 253 ft 109 kts 65°
2026-04-27 20:47 55.03832 -1.68842 242 ft 59 kts 64°
2026-04-27 20:47 55.03963 -1.68401 236 ft 30 kts 46°
2026-04-27 20:47 55.04105 -1.68226 233 ft 17 kts 10°
2026-04-27 20:48 55.04153 -1.68306 234 ft 9 kts 257°
2026-04-27 20:48 55.04126 -1.68414 235 ft 10 kts 245°
2026-04-27 20:48 55.04093 -1.68538 236 ft 11 kts 245°
2026-04-27 20:48 55.04058 -1.68673 238 ft 13 kts 246°
2026-04-27 20:49 55.04017 -1.68830 241 ft 15 kts 245°
2026-04-27 20:49 55.03967 -1.69021 241 ft 19 kts 245°
2026-04-27 20:49 55.03905 -1.69253 242 ft 22 kts 244°
2026-04-27 20:49 55.03839 -1.69509 245 ft 24 kts 248°
2026-04-27 20:50 55.03795 -1.69777 251 ft 22 kts 259°
2026-04-27 20:50 55.03778 -1.70031 256 ft 19 kts 267°
2026-04-27 20:50 55.03784 -1.70265 260 ft 19 kts 276°
2026-04-27 20:50 55.03800 -1.70485 264 ft 17 kts 277°
2026-04-27 20:51 55.03800 -1.70646 267 ft 6 kts 225°
2026-04-27 20:51 55.03746 -1.70661 268 ft 5 kts 184°
2026-04-27 20:51 55.03735 -1.70662 268 ft 0 kts 182°